Погода в Суре

Погода в Суре : погода сейчас, прогноз погоды и архив. Всё, что Вы хотите узнать о погоде в Суре!

Поиск расширенной информации на нашем сайте:

Другие новости

Новости СМИ2

Главная страница сайта

Новости сайта

03.07.2017

Напоминаем, что на нашем специализированном сайте Метеоцентр.Азия вы можете получить высокодетализированные автоматические прогнозы погоды по пунктам России, СНГ и мира в авиационном формате (включающие направление и скорость ветра, видимость, явления погоды, количество и форму облачности, нижнюю и верхнюю границу облачности).


Погода в Суре - сегодня

Время (UTC), дата Ветер
(°,м/с) 
Видим.   Явления Облачность Т
(°С)
Тd
(°С)
f(%) Тe
(°С)
Pmin
(гПа)
dP
(гПа)
Po
(мм)
O2
(г/м3)
Тmin Tmax R s Состояние
почвы
15 15.10.17 060 (СВ) 4000 м  слаб. дождь  10/10 330 м 
[Frnb|Ns]
+4.9 +4.9 100 +6  1005.1  0.2  748  295    +4.9     
18 15.10.17 090 (В) 20000 м  {дождь}  10/10 300 м 
[St]
+5.7 +5.7 100 +5  1005.6  0.5  749  295           
21 15.10.17 100 (В) 20000 м    10/10 300 м 
[St]
+6 +5.9 99 +7  1006.2  0.6  749  294           
00 16.10.17 090 (В) 20000 м    10/10 300 м 
[St]
+6 +5.9 99 +7  1007.2  0.9  750  295           
03 16.10.17 100 (В) 10 км  в посл. час морось  10/10 270 м 
[St]
+5.9 +5.9 100 +7  1007.9  0.7  750  295  +4.9    0.4     
06 16.10.17 130 (ЮВ) 10 км  {морось}  10/10 300 м 
[St]
+6.3 +6.1 99 +6  1008.3  0.4  751  295           
09 16.10.17 130 (ЮВ) 4000 м  дымка  10/10 240 м 
[St]
+6.1 +5.9 99 +6  1008.5  0.2  751  295           
12 16.10.17 140 (ЮВ) 4000 м  слаб. морось  10/10 210 м 
[St]
+6.5 +6.5 100 +7  1008  -0.5  750  294           
15 16.10.17 160 (Ю) 4000 м  слаб. дождь{морось}  10/10 800 м 
[Frnb|Ns]
+7.2 +7.2 100 +7  1007.3  -0.7  750  293    +7.2  0.1     
18 16.10.17 160 (Ю) 20000 м  {дождь, морось}  4/4 300 м 
[Sc]
+6.3 +5.9 97 +5  1005.2  -2.1  748  294           
21 16.10.17 150 (ЮВ) 20000 м    10/10 540 м 
[Sc]
+6 +5.2 95 +4  1002.2  -3  746  293           
00 17.10.17 150 (ЮВ) 10 км  слаб. дождь  10/10 570 м 
[Ns]
+5.9 +4.7 92 +4  997.5  -4.6  743  292           
03 17.10.17 160 (Ю) 4000 м  слаб. дождь  10/10 540 м 
[Ns]
+4.7 +4.5 99 +3  993.2  -4.3  739  292  +4.7       
06 17.10.17 180 (Ю) 10 км  слаб. дождь  10/10 300 м 
[Frnb|Ns]
+3.4 +3.3 99 +1  991.3  -1.9  738  293  +3.3         
09 17.10.17 230 (ЮЗ) 10 км  слаб. дождь  10/10 300 м 
[Frnb|Ns]
+4.5 +4.1 97 +3  990.5  -0.7  737  292           
12 17.10.17 180 (Ю) 4000 м  слаб. дождь  10/10 300 м 
[Frnb|Ns]
+4.9 +4.9 100 +6  990.1  -0.5  737  291           
15 17.10.17 280 (З) 4000 м  слаб. дождь  10/10 300 м 
[Frnb|Ns]
+4 +3.5 97 +3  990.2  0.1  737  292    +5.2     
18 17.10.17 230 (ЮЗ) 4000 м  слаб. дождь  10/10 300 м 
[Frnb|Ns]
+2.5 +2.5 100 +1  989.8  -0.5  737  294           
21 17.10.17 260 (З) 4000 м  слаб. дождь  10/10 270 м 
[Frnb|Ns]
+2.6 +2.6 100 +1  989.4  -0.4  736  293           
00 18.10.17 270 (З) 4000 м  слаб. дождь  10/10 270 м 
[Frnb|Ns]
+2.6 +2.6 100 +1  990.3  0.9  737  294           
03 18.10.17 270 (З) 10 км  в посл. час дождь  10/10 300 м 
[Frnb|Ns]
+3.2 +3.1 99 +1  990.2  0.1  737  293  +2.3       
06 18.10.17 260 (З) 4000 м  слаб. дождь  10/10 300 м 
[Frnb|Ns]
+3.3 +3.2 99 +1  990  0.1  737  293           
09 18.10.17 250 (З) 4000 м  слаб. дождь  10/10 300 м 
[Frnb|Ns]
+3.4 +3.1 98 +2  990.1  0.1  737  293           
12 18.10.17 250 (З) 4000 м  слаб. дождь  10/10 330 м 
[Frnb|Ns]
+3.1 +2.7 97 +2  990.3  0.2  737  293           
15 18.10.17 250 (З) 10 км  слаб. дождь  10/10 330 м 
[Frnb|Ns]
+2.7 +2.6 99 +1  990.4  737  294    +3.4     
Время (UTC), дата Ветер
(°,м/с) 
Видим.   Явления Облачность Т
(°С)
Тd
(°С)
f(%) Тe
(°С)
Pmin
(гПа)
dP
(гПа)
Po
(мм)
O2
(г/м3)
Тmin Tmax R s Состояние
почвы

Для получения пояснительной информации подведите курсор к названию столбца.

ПОГОДА в Суре - архив

Всё, что Вы хотите узнать о погоде в Суре - удобно и подробно!

Выберите нужную дату (начиная с 1 января 2015* года) и нажмите кнопку "Найти".
Будут отображены архивные сводки погоды по пункту Сура, начиная с указанной даты.


Отображать данные в формате CSV (для использования в таблицах Excel)


Внимание! Наш архив погоды предназначен исключительно для личного некоммерческого использования в познавательных целях. Если Вам необходимы официальные справки о состоянии погоды (для производственных, юридических, коммерческих и т.п. целей), обращайтесь в органы Росгидромета.

*Примечание: данная дата относится к архиву по метеостанциям СССР (Россия, СНГ, Балтия).
Архив по метеостанциям Зарубежной Европы и Азии (кроме Китая) хранится 10 дней, по другим регионам земного шара (Китай, Африка, Америка, Австралия, Океания) - 1 день.

Сура - район местоположения метеостанции


Название, широта, долгота, высота метеостанции:
Сура 63.6°ш. 45.6°д. 62 м над ур. моря [Российская Федерация]

Дополнительная информация

В oтличие oт бoльшинства пoгoдных сайтoв мы публикуем пoдрoбную метеoинфoрмацию в детальнoм прoфессиoнальнoм фoрмате.

Характеристики температуры и влажнoсти вoздуха измеряются на высoте 2 м в тени вдали oт зданий и деревьев.
Скoрoсть ветра измеряется на высoте 10 м (на урoвне рoста челoвека скoрoсть ветра ниже в 1.5-2 раза). Если метеoстанция нахoдится в гoрoде или в лесу, тo скoрoсть ветра занижена на 2-4 м/с пo сравнению с oткрытым местoм. Скoрoсть ветра над акватoриями крупных рек и oзёр, а также на вершинах хoлмoв на 2-5 м/с выше, чем в oбычных услoвиях.
Атмoсфернoе давление в разных тoчках местнoсти мoжет значительнo oтличаться oт давления на метеoстанции, в зависимoсти oт услoвий рельефа (при пoдъёме на 10 м давление пoнижается примернo на 1 мм рт.ст.).